Tucson, AZ

2:55 PM MST on December 13, 2019 (GMT -0700)
Tucson International

Weather History for KTUS - May, 2019

Change the Weather History Date:

Wednesday, May 22, 2019

  Actual Average Record
Temperature  
Mean Temperature 68 °F 78 °F  
Max Temperature 79 °F 94 °F 109 °F (2005)
Min Temperature 57 °F 62 °F 43 °F (1902)
Degree Days  
Heating Degree Days 0 0  
Month to date heating degree days 1 3  
Since 1 July heating degree days 1409 1509  
Cooling Degree Days 3 13  
Month to date cooling degree days 136 218  
Year to date cooling degree days 316 372  
Growing Degree Days 18 (Base 50)    
Moisture  
Dew Point 32 °F    
Average Humidity 25    
Maximum Humidity 44    
Minimum Humidity 14    
Precipitation  
Precipitation 0.00 in 0.01 in 0.25 in (1919)
Month to date precipitation 1.22 0.16  
Year to date precipitation 5.03 3.00  
Sea Level Pressure  
Sea Level Pressure 29.62 in    
Wind  
Wind Speed 12 mph (WSW)    
Max Wind Speed 23 mph    
Max Gust Speed 41 mph    
Visibility 10 miles    
Events      
T = Trace of Precipitation, MM = Missing Value Source: NWS Daily Summary

Daily Weather History Graph

Daily Weather History Graph

Search for Another Location

Airport or City:

Astronomy

May. 22, 2019 Rise Set
Actual Time 5:22 AM MST 7:19 PM MST
Civil Twilight 4:54 AM MST 7:46 PM MST
Nautical Twilight 4:21 AM MST 8:19 PM MST
Astronomical Twilight 3:46 AM MST 8:55 PM MST
Moon 11:04 PM MST (5/22) 8:35 AM MST (5/22)
Length of Visible Light 14h 51m
Length of Day
13h 56m
Waning Gibbous, 84% of the Moon is Illuminated
May 22
Waning Gibbous
May 26
Last Quarter
Jun 3
New
Jun 9
First Quarter
Jun 17
Full

Hourly Weather History & Observations

Time (MST) Temp. Dew Point Humidity Pressure Visibility Wind Dir Wind Speed Gust Speed Precip Events Conditions
12:53 AM 62.1 °F 25.0 °F 24% 29.62 in 10.0 mi North - - N/A   Clear
1:53 AM 64.0 °F 16.0 °F 16% 29.61 in 10.0 mi Calm Calm - N/A   Clear
2:53 AM 62.1 °F 19.0 °F 19% 29.60 in 10.0 mi Calm Calm - N/A   Clear
3:53 AM 61.0 °F 21.0 °F 21% 29.60 in 10.0 mi West 6.9 mph - N/A   Clear
4:53 AM 59.0 °F 24.1 °F 26% 29.59 in 10.0 mi SSW 3.5 mph - N/A   Clear
5:53 AM 59.0 °F 23.0 °F 25% 29.61 in 10.0 mi West 6.9 mph - N/A   Clear
6:53 AM 62.1 °F 27.0 °F 26% 29.63 in 10.0 mi NNW 6.9 mph - N/A   Clear
7:53 AM 66.0 °F 27.0 °F 23% 29.62 in 10.0 mi SSW 17.3 mph 29.9 mph N/A   Clear
8:53 AM 69.1 °F 28.9 °F 22% 29.62 in 10.0 mi SSW 18.4 mph 33.4 mph N/A   Clear
9:53 AM 70.0 °F 33.1 °F 26% 29.63 in 10.0 mi SW 17.3 mph 32.2 mph N/A   Clear
10:53 AM 72.0 °F 33.1 °F 24% 29.64 in 10.0 mi South 18.4 mph 27.6 mph N/A   Clear
11:53 AM 75.0 °F 34.0 °F 22% 29.63 in 10.0 mi South 16.1 mph 25.3 mph N/A   Clear
12:53 PM 75.9 °F 37.9 °F 25% 29.62 in 10.0 mi West 17.3 mph 27.6 mph N/A   Clear
1:53 PM 77.0 °F 39.9 °F 26% 29.60 in 10.0 mi West 16.1 mph 41.4 mph N/A   Partly Cloudy
2:53 PM 77.0 °F 39.0 °F 25% 29.58 in 10.0 mi North - - N/A   Partly Cloudy
2:54 PM 78.1 °F 39.0 °F 25% 29.69 in 10.0 mi WSW 16.1 mph 24.2 mph N/A   Partly Cloudy
3:53 PM 79.0 °F 37.9 °F 23% 29.57 in 10.0 mi WSW 16.1 mph 24.2 mph N/A   Clear
4:53 PM 77.0 °F 37.0 °F 24% 29.57 in 10.0 mi SW 16.1 mph 25.3 mph N/A   Clear
5:53 PM 75.0 °F 37.0 °F 25% 29.57 in 10.0 mi North - - N/A   Clear
6:09 PM 75.0 °F 37.0 °F 25% 29.67 in 10.0 mi WSW 17.3 mph 24.2 mph N/A   Clear
6:53 PM 73.0 °F 37.9 °F 28% 29.58 in 10.0 mi WSW 17.3 mph 24.2 mph N/A   Clear
7:53 PM 70.0 °F 37.9 °F 31% 29.61 in 10.0 mi West 13.8 mph 21.9 mph N/A   Clear
8:53 PM 66.0 °F 33.1 °F 29% 29.65 in 10.0 mi WNW 6.9 mph - N/A   Clear
9:53 PM 64.0 °F 36.0 °F 35% 29.68 in 10.0 mi West 10.4 mph - N/A   Clear
10:53 PM 61.0 °F 37.0 °F 41% 29.69 in 10.0 mi West 8.1 mph - N/A   Clear
11:53 PM 59.0 °F 37.0 °F 44% 29.71 in 10.0 mi West 9.2 mph - N/A   Clear